Location: Katherine
(14.4670°S, 132.2670°E)
Time: 23:28:26
(UTC+09:30)

ISS - Pass Details

Date: 16 July 2018
Orbit: 402 x 408 km, 51.6° (Epoch: 23 July)

Event Time Altitude Azimuth Distance (km) Brightness Sun altitude
Rises 20:22:46 0° 236° (SW) 2,319 0.5 -27.2°
Reaches altitude 10° 20:25:09 10° 252° (WSW) 1,454 -0.4 -27.7°
Enters shadow 20:26:46 19° 278° (W) 1,031 -1.0 -28.1°
